When you browse on this site, cookies collect data to enhance your experience and personalize the content and advertising you see.
Visit our Privacy Policy to learn more. By continuing to use the site, you agree to this use of cookies and data.
  • In Slovakia
  • List of Countries
  • For 7 days
  • Water Temperature
  • Weather Map
  • Weather Widgets
  • user-avatar
    Login

    Hourly Weather Lezhe

    Today, 14 December, Saturday

    Time Temperature Precipitation Wind Pressure Humidity
    00:00 +7°C° 0.7 mm 5 mps 717 mmHg 83%
    01:00 +7°C° 0.7 mm 4 mps 716 mmHg 86%
    02:00 +7°C° 3.6 mm 4 mps 717 mmHg 88%
    03:00 +7°C° 3.6 mm 4 mps 717 mmHg 91%
    04:00 +7°C° 3.6 mm 3 mps 717 mmHg 93%
    05:00 +7°C° 0.9 mm 3 mps 718 mmHg 92%
    06:00 +7°C° 0.9 mm 3 mps 719 mmHg 91%
    07:00 +7°C° 0.9 mm 2 mps 720 mmHg 89%
    08:00 +8°C° 0.1 mm 2 mps 721 mmHg 87%
    09:00 +9°C° 0.1 mm 2 mps 722 mmHg 84%
    10:00 +9°C° 0.1 mm 2 mps 723 mmHg 81%
    11:00 +11°C° 0 mm 1 mps 723 mmHg 78%
    12:00 +12°C° 0 mm 1 mps 724 mmHg 74%
    13:00 +13°C° 0 mm 1 mps 724 mmHg 71%
    14:00 +12°C° 0 mm 1 mps 725 mmHg 75%
    15:00 +11°C° 0 mm 1 mps 726 mmHg 80%
    16:00 +9°C° 0 mm 2 mps 727 mmHg 84%
    17:00 +9°C° 0 mm 2 mps 728 mmHg 84%
    18:00 +8°C° 0 mm 2 mps 730 mmHg 84%
    19:00 +8°C° 0 mm 2 mps 731 mmHg 84%
    20:00 +8°C° 0 mm 2 mps 732 mmHg 83%
    21:00 +7°C° 0 mm 2 mps 732 mmHg 82%
    22:00 +7°C° 0 mm 2 mps 733 mmHg 82%
    23:00 +7°C° 0 mm 2 mps 734 mmHg 81%

    Tomorrow, 15 December, Sunday

    Time Temperature Precipitation Wind Pressure Humidity
    00:00 +7°C° 0 mm 2 mps 735 mmHg 81%
    01:00 +7°C° 0 mm 2 mps 735 mmHg 80%
    02:00 +7°C° 0 mm 3 mps 736 mmHg 80%
    03:00 +7°C° 0 mm 3 mps 736 mmHg 80%
    04:00 +7°C° 0 mm 3 mps 736 mmHg 80%
    05:00 +5°C° 0 mm 3 mps 737 mmHg 80%
    06:00 +5°C° 0 mm 3 mps 737 mmHg 79%
    07:00 +5°C° 0 mm 3 mps 738 mmHg 79%
    08:00 +8°C° 0 mm 2 mps 738 mmHg 76%
    09:00 +9°C° 0 mm 2 mps 739 mmHg 73%
    10:00 +12°C° 0 mm 2 mps 739 mmHg 70%
    11:00 +13°C° 0 mm 2 mps 739 mmHg 67%
    12:00 +14°C° 0 mm 1 mps 739 mmHg 63%
    13:00 +15°C° 0 mm 1 mps 739 mmHg 59%
    14:00 +14°C° 0 mm 1 mps 739 mmHg 63%
    15:00 +13°C° 0 mm 1 mps 739 mmHg 67%
    16:00 +12°C° 0 mm 1 mps 740 mmHg 71%
    17:00 +12°C° 0 mm 1 mps 740 mmHg 70%
    18:00 +12°C° 0 mm 1 mps 740 mmHg 69%
    19:00 +11°C° 0 mm 1 mps 741 mmHg 69%
    20:00 +11°C° 0 mm 1 mps 741 mmHg 69%
    21:00 +11°C° 0 mm 1 mps 742 mmHg 69%
    22:00 +11°C° 0 mm 1 mps 742 mmHg 70%
    23:00 +11°C° 0 mm 1 mps 742 mmHg 71%

    Day after tomorrow, 16 December, Monday

    Time Temperature Precipitation Wind Pressure Humidity
    00:00 +10°C° 0 mm 1 mps 742 mmHg 71%
    01:00 +9°C° 0 mm 2 mps 742 mmHg 72%
    02:00 +10°C° 0 mm 2 mps 742 mmHg 74%
    03:00 +11°C° 0 mm 1 mps 742 mmHg 75%
    04:00 +11°C° 0 mm 1 mps 743 mmHg 76%
    05:00 +11°C° 0 mm 1 mps 743 mmHg 78%
    06:00 +11°C° 0 mm 1 mps 743 mmHg 80%
    07:00 +11°C° 0 mm 1 mps 743 mmHg 82%
    08:00 +12°C° 0 mm 1 mps 743 mmHg 80%
    09:00 +13°C° 0 mm 1 mps 744 mmHg 79%
    10:00 +14°C° 0 mm 1 mps 744 mmHg 78%
    11:00 +15°C° 0 mm 1 mps 744 mmHg 76%
    12:00 +16°C° 0 mm 1 mps 743 mmHg 74%
    13:00 +16°C° 0 mm 1 mps 743 mmHg 72%
    14:00 +15°C° 0 mm 1 mps 743 mmHg 76%
    15:00 +14°C° 0 mm 1 mps 743 mmHg 80%
    16:00 +13°C° 0 mm 1 mps 743 mmHg 84%
    17:00 +13°C° 0 mm 1 mps 743 mmHg 83%
    18:00 +12°C° 0 mm 1 mps 743 mmHg 83%
    19:00 +12°C° 0 mm 1 mps 743 mmHg 82%
    20:00 +12°C° 0 mm 1 mps 743 mmHg 82%
    21:00 +11°C° 0 mm 1 mps 743 mmHg 81%
    22:00 +11°C° 0 mm 1 mps 743 mmHg 81%
    23:00 +11°C° 0 mm 1 mps 743 mmHg 81%

    17 December, Tuesday

    Time Temperature Precipitation Wind Pressure Humidity
    00:00 +11°C° 0 mm 1 mps 743 mmHg 80%
    01:00 +11°C° 0 mm 1 mps 743 mmHg 80%
    02:00 +10°C° 0 mm 1 mps 743 mmHg 81%
    03:00 +10°C° 0 mm 1 mps 743 mmHg 81%
    04:00 +10°C° 0 mm 1 mps 743 mmHg 81%
    05:00 +9°C° 0 mm 2 mps 743 mmHg 81%
    06:00 +9°C° 0 mm 2 mps 743 mmHg 81%
    07:00 +9°C° 0 mm 2 mps 743 mmHg 81%
    08:00 +12°C° 0 mm 2 mps 743 mmHg 78%
    09:00 +13°C° 0 mm 2 mps 743 mmHg 75%
    10:00 +15°C° 0 mm 1 mps 743 mmHg 72%
    11:00 +15°C° 0 mm 1 mps 743 mmHg 72%
    12:00 +16°C° 0 mm 1 mps 742 mmHg 73%
    13:00 +16°C° 0 mm 1 mps 742 mmHg 73%
    14:00 +15°C° 0 mm 1 mps 742 mmHg 76%
    15:00 +15°C° 0 mm 1 mps 742 mmHg 80%
    16:00 +14°C° 0 mm 2 mps 742 mmHg 83%
    17:00 +13°C° 0 mm 1 mps 742 mmHg 84%
    18:00 +13°C° 0 mm 1 mps 742 mmHg 85%
    19:00 +13°C° 0 mm 1 mps 743 mmHg 85%
    20:00 +12°C° 0 mm 1 mps 743 mmHg 85%
    21:00 +12°C° 0 mm 1 mps 743 mmHg 85%
    22:00 +12°C° 0 mm 1 mps 743 mmHg 85%
    23:00 +12°C° 0 mm 1 mps 743 mmHg 85%

    18 December, Wednesday

    Time Temperature Precipitation Wind Pressure Humidity
    00:00 +11°C° 0 mm 1 mps 742 mmHg 85%
    01:00 +11°C° 0 mm 1 mps 742 mmHg 85%
    02:00 +11°C° 0 mm 1 mps 742 mmHg 85%
    03:00 +11°C° 0 mm 1 mps 742 mmHg 85%
    04:00 +11°C° 0 mm 1 mps 742 mmHg 85%
    05:00 +11°C° 0 mm 1 mps 742 mmHg 85%
    06:00 +11°C° 0 mm 1 mps 742 mmHg 85%
    07:00 +11°C° 0 mm 1 mps 742 mmHg 85%
    08:00 +12°C° 0 mm 1 mps 742 mmHg 81%
    09:00 +13°C° 0 mm 1 mps 742 mmHg 78%
    10:00 +14°C° 0 mm 1 mps 742 mmHg 74%
    11:00 +15°C° 0 mm 1 mps 742 mmHg 72%
    12:00 +16°C° 0 mm 1 mps 742 mmHg 70%
    13:00 +16°C° 0 mm 1 mps 741 mmHg 67%
    14:00 +15°C° 0 mm 1 mps 741 mmHg 72%
    15:00 +14°C° 0 mm 1 mps 741 mmHg 76%
    16:00 +13°C° 0 mm 1 mps 741 mmHg 80%
    17:00 +13°C° 0 mm 1 mps 741 mmHg 80%
    18:00 +12°C° 0 mm 1 mps 741 mmHg 80%
    19:00 +12°C° 0 mm 1 mps 741 mmHg 79%
    20:00 +12°C° 0 mm 1 mps 741 mmHg 79%
    21:00 +12°C° 0 mm 1 mps 741 mmHg 78%
    22:00 +12°C° 0 mm 2 mps 741 mmHg 77%
    23:00 +12°C° 0 mm 2 mps 741 mmHg 75%

    19 December, Thursday

    Time Temperature Precipitation Wind Pressure Humidity
    00:00 +10°C° 0 mm 2 mps 741 mmHg 73%
    01:00 +10°C° 0 mm 2 mps 740 mmHg 71%
    02:00 +11°C° 0 mm 1 mps 740 mmHg 70%
    03:00 +11°C° 0 mm 1 mps 740 mmHg 69%
    04:00 +11°C° 0 mm 1 mps 739 mmHg 68%
    05:00 +10°C° 0 mm 2 mps 739 mmHg 68%
    06:00 +10°C° 0 mm 2 mps 739 mmHg 68%
    07:00 +10°C° 0 mm 2 mps 739 mmHg 68%
    08:00 +12°C° 0 mm 2 mps 738 mmHg 66%
    09:00 +14°C° 0 mm 2 mps 738 mmHg 64%
    10:00 +15°C° 0 mm 2 mps 738 mmHg 63%
    11:00 +14°C° 0.2 mm 2 mps 738 mmHg 66%
    12:00 +14°C° 0.2 mm 2 mps 737 mmHg 70%
    13:00 +13°C° 0.2 mm 2 mps 736 mmHg 74%
    14:00 +13°C° 0.8 mm 2 mps 736 mmHg 77%
    15:00 +12°C° 0.8 mm 3 mps 736 mmHg 81%
    16:00 +12°C° 0.8 mm 3 mps 735 mmHg 84%
    17:00 +11°C° 5.9 mm 3 mps 735 mmHg 88%
    18:00 +11°C° 5.9 mm 4 mps 735 mmHg 91%
    19:00 +11°C° 5.9 mm 4 mps 735 mmHg 95%
    20:00 +11°C° 2.2 mm 4 mps 735 mmHg 94%
    21:00 +11°C° 2.2 mm 4 mps 735 mmHg 93%
    22:00 +10°C° 2.2 mm 5 mps 735 mmHg 91%
    23:00 +11°C° 0.7 mm 4 mps 735 mmHg 91%
    Show more